792  
ASUS45 KBOI 230710  
RWRID  
 
IDAHO REGIONAL WEATHER ROUNDUP  
NATIONAL WEATHER SERVICE BOISE ID  
1200 AM MST WED JAN 23 2019  
 
NOTE: "FAIR" INDICATES FEW OR NO CLOUDS BELOW 12000 FEET  
WITH NO SIGNIFICANT WEATHER AND/OR S TO VISIBILITY
 
 
IDZ012-014-230800-  
SOUTHWEST IDAHO  
 
 
CITY SKY/WX TMP DP RH WIND PRES REMARKS
 
BOISE CLOUDY 34 20 56 SE10 30.35S WCI 26  
CALDWELL CLOUDY 34 23 64 SE9 30.37S WCI 27  
MOUNTAIN HOME CLOUDY 31 31 100 E9 30.35F WCI 23  

 
 
IDZ016-017-230800-  
SOUTHCENTRAL IDAHO  
 
 
CITY SKY/WX TMP DP RH WIND PRES REMARKS
 
BURLEY CLOUDY 29 15 56 SW10 30.35F WCI 20  
JEROME CLOUDY 29 18 63 S7 30.35F WCI 22  
TWIN FALLS CLOUDY 30 12 47 S10 30.35F WCI 21  

 
 
IDZ019>023-230800-  
SOUTHEAST IDAHO  
 
 
CITY SKY/WX TMP DP RH WIND PRES REMARKS
 
IDAHO FALLS CLOUDY 26 17 68 S12 30.31F WCI 16  
POCATELLO CLOUDY 27 15 61 S13 30.35F WCI 16  
REXBURG CLOUDY 22 16 78 SW9 30.30F WCI 12  

 
 
IDZ006-010-011-018-031-032-230800-  
CENTRAL IDAHO MOUNTAINS  
 
 
CITY SKY/WX TMP DP RH WIND PRES REMARKS
 
MCCALL LGT SNOW 22 19 89 CALM 30.24S VSB 1  
HAILEY CLOUDY 19 12 73 NW5 30.31F WCI 13  
STANLEY N/A 17 10 74 CALM 30.22F  
SALMON NOT AVBL  
CHALLIS CLOUDY 24 13 62 CALM 30.22F  

 
 
IDZ002-004-006-007-026-230800-  
NORTHERN IDAHO  
 
 
CITY SKY/WX TMP DP RH WIND PRES REMARKS
 
LEWISTON LGT RAIN 38 31 76 S13 30.17F WCI 30  
LOWELL N/A 33 31 92 VRB5 30.26F WCI 29  
COEUR D'ALENE LGT SNOW N/A N/A N/A S8 30.12F  
MULLAN PASS LGT SNOW 22 16 78 VRB7 30.00F VSB 1 WCI 13  

 
 
 
CLICK HERE TO GO TO PREVIOUS BULLETINS.

The Nexlab ID Page Main Text Page